Погода в Буе

Россия / Республика Бурятия     50°38′28″N   107°58′15″E
темп.,
°C
ветер,
м/с
пор.,
м/с
влажн.,
%
обл.,
%
осадки,
мм/ч
давл.,
гПа
погр.,
м
27 января, чт
чт2723:00−26ссв0110091 0.0 10429
02:00−27св0110079 0.0 10429
05:00−28ссв1110081 0.0 10439
08:00−29ссв1110071 0.0 10439
11:00−22юз1195100 0.0 104288
14:00−17юз128829 0.0 1039186
17:00−21зюз119912 0.0 10409
20:00−26сз0110045 0.0 10449
28 января, пт
пт2823:00−28ссв0110070 0.0 10459
02:00−29ссв1110063 0.0 10469
05:00−29ссв1110063 0.0 10469
08:00−30св1110068 0.0 10479
11:00−23ю009860 0.0 104481
14:00−18ююз119029 0.0 1040165
17:00−21зюз111005 0.0 10409
20:00−26с0110050 0.0 10429
29 января, сб
сб2923:00−28ссв1110071 0.0 10429
02:00−29св1110081 0.0 10429
05:00−30св0110091 0.0 10429
08:00−31св0110098 0.1 10439
11:00−25ююз119997 0.0 104191
14:00−20юз119593 0.1 1038176
17:00−23зюз119957 0.0 10389
20:00−28сз0110074 0.0 10419
30 января, вс
вс3023:00−29ссз0110077 0.0 10439
02:00−30с0110084 0.0 10449
05:00−31с0010088 0.0 10449
08:00−31сз0010091 0.1 10459
11:00−25юз119994 0.0 104496
14:00−20юз229690 0.1 1041198
17:00−21юз1110051 0.0 10419
20:00−27зсз0110080 0.0 10449
31 января, пн
пн3123:00−27ссз0110098 0.0 10449
02:00−28ссв0110099 0.1 10449
05:00−29ссв1110099 0.0 10449
08:00−29ссв1110098 0.1 104411
11:00−23юз119793 0.1 1042103
14:00−18юз129382 0.1 1039204
17:00−21юз1110047 0.0 10399
20:00−26ссз0110083 0.0 10429